Temperature
19 20 20 20 19 19 19 19 19 19 19 19 19 19 19 19 19 19 19 19 19 19 19 19 19 18 18 18 18 18 18 18 18 18 18 18 18 18 18 18 18 18 18
20 20 20 20 19 19 19 19 19 19 19 19 19 19 19 19 19 19 19 19 19 19 19 19 19 19 18 18 18 18 18 18 18 18 18 18 18 18 18 18 18 18 18
20 20 20 20 20 19 19 19 19 19 19 19 19 19 19 19 19 19 19 19 19 19 19 19 19 18 18 18 18 18 18 18 18 18 18 18 18 18 18 18 18 18 18
20 20 20 20 20 19 19 19 19 19 19 19 19 19 19 19 19 19 19 19 18 19 19 19 19 18 18 18 18 18 18 18 18 18 18 18 18 18 18 18 18 18 18
20 20 20 20 20 19 19 19 19 19 19 19 19 19 19 19 19 19 19 19 19 19 19 19 18 18 18 18 18 18 18 18 18 18 18 18 18 18 18 18 18 18 18
20 20 20 20 20 19 19 19 19 19 19 19 19 19 19 19 19 19 19 19 19 19 19 18 18 18 18 18 18 18 18 18 18 18 18 18 18 18 18 17 17 18 18
20 20 20 20 20 19 19 19 19 19 19 19 19 19 19 19 19 19 19 19 18 18 18 18 18 18 18 18 18 18 18 18 18 18 18 18 18 18 18 17 17 17 17
20 20 20 20 20 19 19 19 19 19 19 19 19 19 19 19 19 19 19 18 18 18 18 18 18 18 18 18 18 18 18 18 18 18 18 18 18 18 18 17 18 17 17
20 20 20 20 20 19 19 19 19 19 19 19 19 19 19 19 19 19 19 19 18 18 18 18 18 18 18 18 18 18 18 18 18 18 18 18 18 18 18 18 17 17 17
20 20 20 20 20 19 19 19 19 19 19 19 19 19 19 19 19 19 18 18 18 18 18 18 18 18 18 18 18 18 18 18 18 18 18 18 18 18 18 18 17 17 17
20 20 20 20 20 19 19 19 19 19 19 19 19 18 18 19 19 19 18 18 18 18 18 18 18 18 18 18 18 18 18 18 18 18 18 18 18 18 18 18 18 17 17
20 20 20 20 20 19 19 19 19 19 19 19 19 19 19 19 18 18 18 18 18 18 18 18 18 18 18 18 18 18 18 18 18 18 18 18 18 18 18 18 18 17 17
20 20 20 20 20 20 19 19 19 19 19 19 19 19 19 18 18 18 18 18 18 18 18 18 18 18 18 18 18 18 18 18 18 18 18 18 18 18 18 18 18 17 17
20 20 20 20 20 20 19 19 19 19 19 19 19 19 19 18 18 18 18 18 18 18 18 18 18 18 18 18 18 18 18 18 18 18 18 18 18 18 18 18 18 18 17
21 20 20 20 20 20 20 19 19 19 19 19 19 18 18 18 18 18 18 18 18 18 18 18 18 18 18 18 18 18 18 18 18 18 18 18 18 18 18 18 18 18 18
21 20 20 20 20 20 20 19 19 19 19 19 19 19 19 19 19 18 18 18 18 18 18 18 18 18 18 18 18 18 18 18 18 18 18 18 18 18 18 18 18 18 18
21 21 20 20 20 20 20 20 19 19 19 19 19 19 19 19 19 19 19 18 18 18 18 18 18 18 18 18 18 18 18 18 18 18 18 18 18 18 18 18 18 18 18
21 21 21 20 20 20 20 19 19 19 19 19 19 19 19 19 19 19 19 19 18 18 18 18 18 18 18 18 18 18 18 18 18 18 18 18 18 18 18 18 18 18 18
22 21 21 21 20 20 20 20 20 19 19 19 19 19 19 19 19 19 19 19 19 18 18 18 18 18 18 18 18 18 18 18 18 18 18 18 18 18 18 18 18 18 18
22 22 21 21 21 20 20 20 20 19 19 19 19 19 19 19 19 19 19 19 19 18 18 18 18 18 18 18 18 18 18 18 18 18 18 18 18 18 18 18 18 18 18
22 22 22 21 21 21 20 20 20 20 19 19 19 19 19 19 19 19 19 19 19 18 18 18 18 18 18 18 18 18 18 18 18 18 18 18 18 18 18 18 18 18 18
23 22 22 21 21 21 21 20 20 20 19 19 19 19 19 19 19 19 19 19 19 19 18 18 18 18 18 18 18 18 18 18 18 18 18 18 18 18 18 18 18 18 18
23 23 22 22 21 21 21 20 20 20 19 19 19 19 19 19 19 19 19 19 19 18 19 18 18 18 18 18 18 17 17 17 17 18 18 18 18 18 18 18 18 18 18
23 23 23 22 22 21 21 21 20 20 20 20 19 19 19 19 19 19 19 19 18 18 18 18 18 18 18 18 18 17 17 17 17 17 18 18 18 18 18 18 18 18 18
23 23 23 22 22 21 21 21 20 20 20 20 19 19 19 19 19 19 19 18 18 18 18 18 18 18 18 18 18 18 17 17 17 17 17 18 18 18 18 18 18 18 18
24 23 23 22 22 22 21 21 21 20 20 20 19 19 19 19 19 19 19 18 18 18 18 18 18 18 18 18 17 17 17 17 17 17 17 17 17 18 18 18 18 17 17
Wind_Speed
3 5 9 11 12 12 12 12 13 13 14 14 14 14 14 15 15 15 15 15 15 14 14 14 13 13 13 13 13 13 12 12 12 12 11 11 11 11 11 11 11 10 11
7 7 11 12 12 12 12 12 13 13 14 13 13 14 14 14 15 14 14 14 14 14 13 13 13 12 12 12 12 12 11 11 11 11 10 10 10 10 10 11 10 9 11
8 8 10 12 12 12 12 12 12 13 13 13 13 13 13 14 14 14 13 13 13 13 12 12 12 12 12 11 11 11 11 10 10 9 9 8 9 10 10 10 10 11 10
10 9 10 12 12 12 12 12 12 12 13 13 12 12 12 13 13 13 12 11 11 11 11 10 11 11 11 11 10 10 10 10 9 8 7 7 8 10 11 11 10 10 10
8 9 11 13 13 12 11 11 12 12 12 12 12 12 12 12 11 11 11 10 10 10 10 9 10 10 10 10 9 8 9 9 9 7 6 8 8 10 12 11 11 10 10
7 8 11 13 13 12 11 12 12 12 12 12 11 11 11 10 10 10 9 9 9 9 9 9 8 8 9 9 9 8 9 8 8 6 6 8 9 11 12 12 12 11 11
7 8 10 12 13 12 12 12 12 12 12 12 11 10 10 9 9 9 8 8 8 8 9 9 8 8 8 9 8 8 9 9 7 6 6 8 10 12 12 13 12 12 11
9 8 9 12 12 12 11 11 12 12 12 11 11 10 9 9 8 8 7 7 8 8 8 8 8 8 8 8 7 7 8 8 7 7 7 8 11 12 13 13 13 12 12
8 7 7 8 10 11 11 11 12 11 11 11 10 10 9 8 7 7 7 7 7 8 9 9 8 8 8 8 7 6 7 7 6 5 7 8 11 12 13 13 13 13 12
7 6 6 7 8 8 9 10 11 11 11 11 10 9 9 8 7 7 7 7 7 8 8 9 9 9 9 8 8 7 7 6 6 6 7 9 11 12 13 13 13 14 13
6 5 5 5 6 7 7 9 10 10 10 10 9 9 8 6 6 6 6 7 7 7 8 8 9 9 9 9 9 9 7 4 5 6 7 10 11 11 12 12 13 14 14
6 6 5 6 6 7 7 7 6 7 7 8 7 7 6 6 6 6 7 7 7 7 8 9 9 9 8 6 8 8 5 5 5 5 7 11 12 12 12 12 13 14 14
7 6 6 6 7 7 5 6 5 5 5 6 6 6 6 4 4 4 4 4 5 5 5 6 6 5 5 5 4 4 5 5 5 5 8 11 12 12 13 13 13 13 14
6 6 5 5 5 5 5 5 5 4 4 4 5 6 5 3 2 2 3 3 3 3 3 3 3 4 4 5 5 5 5 4 5 6 8 12 13 14 14 14 14 13 13
6 5 5 5 5 5 4 3 4 4 4 4 4 5 5 4 3 2 2 3 3 4 3 2 3 3 3 4 4 5 5 6 6 7 7 11 12 13 14 14 14 13 13
7 6 5 5 5 5 4 3 3 4 4 4 4 4 5 5 4 3 2 2 3 3 3 3 2 2 2 3 3 4 5 6 7 7 8 10 12 13 13 14 14 14 14
7 6 5 6 5 5 5 4 3 3 4 4 4 5 4 4 4 3 2 2 2 3 3 2 2 1 1 2 2 4 4 5 6 7 8 9 10 12 13 14 14 14 14
7 7 6 7 6 5 5 4 3 3 4 3 4 5 4 4 4 3 2 2 2 2 2 2 1 1 2 2 2 3 3 4 5 6 7 8 9 9 11 13 14 14 14
8 8 7 6 6 5 5 4 3 3 3 3 4 4 4 4 4 3 1 1 2 1 1 2 1 1 2 2 2 2 3 3 4 5 5 7 8 9 9 11 14 13 13
8 8 7 7 6 5 4 3 3 2 2 2 3 4 4 4 4 3 1 1 2 1 1 1 1 1 1 1 2 2 3 3 3 3 4 4 6 8 9 9 10 11 13
8 8 8 7 6 5 3 3 3 2 2 2 2 4 5 4 4 3 1 1 2 2 2 1 1 0 1 0 1 2 2 2 2 2 2 3 4 6 7 9 9 8 9
9 8 8 7 6 5 4 3 3 3 2 2 2 2 4 4 3 3 2 2 2 2 1 1 1 0 1 0 1 1 2 3 2 2 2 2 3 3 5 7 8 9 10
9 9 9 8 7 6 5 3 3 2 2 1 1 1 1 3 3 2 2 2 2 2 2 2 2 2 1 1 1 2 1 2 3 3 2 2 3 3 3 4 7 9 10
10 9 8 8 7 6 6 5 5 4 3 3 3 2 1 2 2 3 2 2 2 2 2 2 2 2 2 1 1 1 2 3 1 2 3 3 3 3 4 4 4 7 9
10 9 7 7 6 6 6 6 5 4 3 2 2 2 1 0 1 1 2 2 2 2 2 2 2 2 2 2 1 1 0 0 1 2 3 3 3 4 4 4 4 5 7
9 9 8 7 6 6 6 6 6 6 5 4 3 3 2 1 0 0 1 1 1 1 2 2 2 2 2 2 1 1 1 1 2 2 2 3 4 4 3 3 3 3 5
Wind_Direction
163 164 137 128 121 117 116 114 110 109 110 111 114 115 116 118 120 123 127 131 134 138 141 144 146 146 147 148 146 145 145 144 145 145 146 145 142 141 138 138 136 132 134
158 157 139 133 128 124 121 119 115 113 112 113 115 117 120 122 123 124 127 133 137 141 143 146 148 149 152 153 152 150 149 148 148 149 151 149 149 148 146 143 143 140 141
144 147 141 136 130 127 126 125 121 119 119 120 120 120 123 126 128 128 129 132 141 144 147 150 152 154 157 159 158 157 157 154 157 158 158 154 157 157 154 151 148 146 148
142 143 141 138 133 131 130 130 127 125 125 126 126 126 126 128 130 131 133 134 139 145 150 153 157 159 162 162 161 163 165 167 166 167 166 167 169 167 160 156 153 153 154
134 142 145 140 137 134 133 134 132 131 130 131 131 130 131 133 135 135 136 139 144 147 150 153 159 164 167 166 167 171 174 176 174 176 176 179 176 173 168 167 166 165 165
133 143 146 142 140 136 132 134 134 135 135 135 135 135 136 137 140 141 143 145 150 155 156 157 162 171 173 174 176 179 180 184 185 183 176 174 176 180 179 177 176 176 175
137 145 147 144 142 140 136 134 137 138 140 140 140 140 141 143 146 150 153 156 161 165 166 168 172 174 177 181 185 187 187 193 191 181 180 180 184 187 187 187 185 184 183
141 146 144 144 144 143 141 140 140 142 145 145 146 147 147 148 151 158 163 168 172 174 175 176 179 182 187 190 193 197 199 202 200 196 194 191 190 192 194 195 193 192 190
139 141 143 148 148 146 145 147 145 146 150 152 153 155 156 159 162 167 174 181 187 189 191 189 188 191 197 202 206 209 204 206 190 189 195 194 197 200 202 200 196 196 195
141 143 146 151 151 153 151 151 156 158 159 161 164 166 170 173 178 181 187 190 194 199 202 199 198 203 206 209 215 217 213 210 190 193 196 199 203 205 205 203 200 202 201
146 158 155 160 165 164 162 166 168 168 172 173 176 178 181 183 187 194 199 202 203 206 208 203 205 209 214 219 223 221 218 211 191 200 200 204 207 208 208 207 207 207 206
158 167 167 170 176 178 174 172 177 178 181 182 183 184 183 188 198 202 204 210 210 208 207 210 212 215 220 223 227 223 210 202 195 202 204 207 208 210 211 211 211 209 210
167 167 169 172 174 180 179 168 178 183 183 187 189 186 183 183 199 206 197 213 211 207 210 213 217 222 222 219 215 211 210 206 198 206 207 210 211 216 217 215 213 214 215
156 163 166 160 159 169 165 169 171 172 175 184 187 178 169 167 171 177 186 203 203 201 198 202 210 226 228 224 214 213 215 207 198 203 208 211 212 216 217 217 216 215 216
153 161 163 151 150 155 152 166 159 169 169 173 169 171 167 164 169 179 196 193 198 196 192 195 213 219 227 233 221 213 213 212 202 203 212 215 215 215 215 216 215 214 215
160 163 161 155 152 146 145 150 148 154 155 148 162 172 168 166 168 172 177 180 196 200 196 197 208 207 229 233 227 219 217 210 201 203 211 216 219 218 218 219 218 216 216
162 158 160 157 149 145 145 150 143 152 150 156 167 168 165 158 157 162 169 187 206 204 189 180 182 180 228 241 241 232 220 209 202 206 212 212 217 222 222 222 220 220 221
157 152 161 153 145 145 138 137 138 150 149 158 168 167 165 158 154 154 155 192 198 177 163 161 170 191 238 248 257 246 230 215 217 214 213 213 212 217 221 223 223 225 227
159 153 153 145 147 151 147 140 137 144 143 154 161 159 159 153 159 152 146 180 167 141 157 194 168 187 216 247 257 257 243 226 227 224 219 216 214 217 218 225 227 227 230
158 153 153 149 152 146 137 118 107 117 136 149 158 162 163 161 160 156 154 170 148 131 149 191 188 211 216 226 256 278 270 248 236 229 223 215 217 218 218 222 224 227 230
158 155 156 155 160 146 136 140 139 159 167 171 181 172 166 167 166 158 160 163 154 159 195 190 168 223 311 120 42 328 314 288 255 244 237 228 231 224 217 217 214 218 226
170 167 162 165 166 163 164 164 161 159 172 172 176 171 178 177 181 170 167 165 166 162 171 175 138 162 282 104 127 37 339 338 322 274 253 236 246 236 226 221 213 213 221
177 177 174 174 171 171 164 141 121 99 87 102 139 181 196 181 175 162 148 150 155 154 179 201 184 181 232 293 136 145 145 264 306 313 293 274 271 256 243 228 222 221 223
187 180 172 170 171 172 160 155 154 156 168 192 184 186 192 162 152 147 139 133 146 155 178 206 179 189 179 232 296 223 197 189 205 302 313 297 285 272 264 255 239 230 230
180 173 170 166 168 166 163 163 159 162 175 173 153 147 164 183 161 153 140 138 156 172 190 203 199 202 193 195 212 249 278 257 204 200 276 300 303 280 268 259 247 241 238
174 170 171 169 173 170 167 164 163 165 160 149 155 166 181 202 234 223 150 160 174 189 200 207 204 201 204 194 208 212 205 220 242 216 238 267 284 287 281 272 269 252 244
Height
1516 1516 1515 1515 1515 1515 1514 1514 1514 1514 1515 1516 1517 1518 1520 1521 1522 1523 1525 1526 1528 1529 1530 1532 1533 1534 1535 1536 1538 1539 1540 1541 1542 1543 1544 1545 1546 1547 1547 1548 1549 1549 1550
1516 1516 1516 1516 1515 1515 1516 1516 1516 1516 1517 1517 1518 1520 1521 1522 1523 1524 1525 1527 1528 1530 1531 1532 1533 1534 1536 1537 1538 1539 1540 1541 1542 1543 1544 1545 1546 1547 1547 1548 1549 1549 1550
1517 1516 1516 1516 1516 1516 1517 1517 1517 1517 1518 1519 1520 1521 1522 1523 1524 1525 1526 1527 1529 1530 1532 1533 1534 1535 1536 1537 1538 1539 1540 1541 1542 1543 1544 1545 1546 1546 1547 1548 1549 1549 1550
1517 1517 1517 1517 1517 1517 1518 1518 1518 1519 1519 1520 1521 1522 1523 1524 1525 1526 1527 1528 1529 1531 1532 1533 1534 1535 1536 1538 1538 1539 1540 1541 1542 1543 1543 1544 1545 1546 1547 1547 1548 1549 1549
1518 1518 1518 1518 1518 1518 1518 1519 1519 1520 1520 1521 1522 1523 1524 1525 1526 1527 1528 1529 1530 1532 1532 1533 1534 1535 1536 1537 1538 1539 1540 1541 1542 1542 1543 1543 1544 1545 1546 1547 1548 1548 1549
1519 1519 1519 1519 1519 1519 1519 1520 1520 1521 1521 1522 1523 1524 1525 1526 1527 1528 1529 1530 1531 1532 1533 1533 1534 1535 1536 1537 1538 1539 1540 1540 1541 1541 1542 1542 1543 1544 1545 1546 1547 1547 1548
1520 1520 1520 1520 1520 1521 1521 1521 1521 1522 1523 1523 1524 1525 1526 1527 1528 1529 1529 1530 1531 1532 1532 1533 1534 1535 1536 1537 1538 1538 1539 1540 1540 1541 1541 1542 1542 1543 1544 1545 1545 1546 1547
1520 1521 1521 1521 1521 1522 1522 1522 1522 1523 1524 1525 1525 1526 1527 1528 1528 1529 1530 1530 1531 1531 1532 1533 1533 1534 1535 1536 1537 1538 1538 1539 1539 1540 1540 1541 1541 1542 1543 1543 1544 1545 1546
1522 1522 1522 1522 1523 1523 1523 1523 1524 1524 1525 1526 1526 1527 1527 1528 1529 1529 1530 1530 1530 1531 1531 1532 1533 1534 1534 1536 1537 1537 1538 1538 1538 1538 1539 1540 1540 1541 1542 1542 1542 1543 1544
1522 1523 1523 1523 1524 1524 1524 1525 1525 1526 1526 1527 1527 1527 1528 1528 1529 1529 1529 1530 1530 1530 1530 1531 1532 1533 1534 1535 1536 1537 1537 1537 1537 1537 1538 1538 1539 1540 1540 1540 1541 1542 1542
1523 1523 1524 1524 1524 1525 1525 1526 1526 1527 1527 1527 1528 1528 1528 1528 1529 1529 1529 1529 1529 1529 1529 1530 1531 1533 1533 1534 1535 1536 1536 1536 1536 1536 1536 1537 1537 1538 1538 1539 1539 1540 1540
1523 1523 1524 1524 1524 1525 1526 1526 1526 1527 1527 1527 1528 1528 1528 1528 1529 1529 1529 1529 1529 1529 1529 1530 1531 1532 1533 1533 1534 1534 1535 1535 1535 1535 1535 1536 1536 1537 1537 1537 1537 1538 1538
1522 1523 1523 1524 1525 1525 1526 1526 1527 1527 1527 1528 1528 1528 1528 1528 1528 1528 1528 1528 1528 1529 1529 1530 1530 1531 1532 1532 1533 1533 1533 1533 1534 1534 1534 1534 1535 1535 1535 1535 1535 1536 1536
1522 1523 1523 1524 1525 1525 1526 1526 1527 1527 1527 1527 1528 1528 1528 1528 1528 1528 1528 1528 1528 1528 1529 1529 1529 1530 1531 1531 1531 1532 1532 1532 1532 1532 1533 1533 1533 1533 1533 1533 1533 1534 1535
1521 1522 1523 1524 1525 1525 1526 1526 1527 1527 1527 1527 1527 1527 1527 1527 1527 1527 1527 1528 1528 1528 1528 1529 1529 1529 1530 1530 1530 1530 1530 1531 1531 1531 1531 1532 1532 1532 1532 1532 1532 1532 1533
1520 1522 1523 1524 1525 1525 1526 1526 1527 1527 1528 1527 1527 1527 1527 1527 1527 1527 1527 1527 1527 1528 1528 1528 1529 1529 1529 1529 1529 1529 1529 1529 1529 1529 1530 1530 1530 1530 1530 1530 1530 1530 1530
1521 1522 1523 1524 1525 1525 1526 1527 1527 1527 1528 1527 1528 1528 1528 1528 1527 1527 1527 1527 1527 1527 1528 1528 1528 1528 1528 1527 1527 1527 1527 1527 1527 1527 1528 1528 1528 1528 1528 1528 1529 1528 1528
1521 1522 1523 1524 1525 1525 1526 1526 1527 1527 1528 1528 1528 1528 1528 1528 1528 1527 1526 1526 1526 1526 1527 1527 1527 1527 1526 1526 1525 1525 1525 1525 1526 1526 1526 1526 1527 1527 1527 1527 1527 1526 1526
1521 1521 1522 1523 1524 1525 1526 1526 1527 1527 1528 1528 1528 1528 1528 1528 1528 1527 1526 1526 1526 1526 1526 1526 1526 1526 1525 1525 1524 1524 1524 1524 1524 1524 1524 1525 1525 1525 1525 1525 1525 1525 1524
1521 1521 1522 1523 1524 1525 1525 1526 1527 1527 1527 1528 1528 1528 1528 1528 1527 1527 1526 1526 1526 1525 1526 1526 1525 1525 1524 1524 1523 1523 1523 1522 1522 1523 1523 1523 1523 1523 1523 1523 1523 1523 1523
1520 1521 1521 1522 1523 1524 1525 1525 1526 1526 1527 1528 1528 1528 1528 1528 1527 1527 1526 1526 1525 1525 1525 1525 1525 1524 1524 1523 1523 1522 1522 1521 1521 1522 1522 1521 1521 1521 1520 1520 1520 1520 1520
1519 1520 1521 1521 1522 1523 1524 1525 1525 1526 1527 1527 1528 1528 1528 1528 1527 1527 1526 1525 1525 1524 1524 1524 1524 1523 1523 1523 1522 1522 1521 1521 1520 1520 1520 1520 1520 1519 1519 1518 1518 1518 1517
1518 1519 1520 1521 1521 1522 1523 1524 1525 1526 1527 1527 1527 1527 1527 1527 1527 1526 1526 1525 1525 1524 1524 1523 1523 1523 1522 1522 1522 1522 1521 1520 1519 1519 1519 1519 1518 1517 1517 1517 1516 1515 1515
1516 1518 1519 1520 1521 1522 1523 1523 1524 1524 1525 1526 1526 1527 1527 1527 1527 1526 1525 1525 1524 1524 1523 1523 1523 1522 1522 1521 1521 1521 1521 1520 1519 1518 1518 1517 1517 1516 1515 1514 1514 1513 1512
1515 1516 1518 1519 1520 1521 1521 1522 1523 1524 1524 1525 1526 1526 1526 1526 1526 1526 1525 1524 1523 1523 1523 1523 1522 1521 1521 1520 1520 1520 1519 1519 1518 1517 1515 1515 1514 1514 1513 1512 1511 1510 1510
1513 1515 1516 1517 1518 1519 1520 1521 1522 1523 1523 1524 1525 1525 1525 1525 1525 1525 1524 1523 1523 1522 1522 1521 1521 1520 1520 1519 1519 1518 1518 1517 1516 1515 1514 1513 1512 1512 1511 1510 1509 1508 1508